Time,TemperatureF,DewpointF,PressureIn,WindDirection,WindDirectionDegrees,WindSpeedMPH,WindSpeedGustMPH,Humidity,HourlyPrecipIn,Conditions,Clouds,dailyrainin,SoftwareType,DateUTC
2013-01-14 19:26:00,42.7,33.6,30.29,North,355,2.0,7.0,70,0.00,,,0.04,Wunderground v.1.15,2013-01-15 00:26:00,
2013-01-14 19:32:00,42.6,33.5,30.29,NNW,344,3.0,7.0,70,0.00,,,0.04,Wunderground v.1.15,2013-01-15 00:32:00,
2013-01-14 19:34:00,42.5,33.4,30.29,North,355,3.0,7.0,70,0.00,,,0.04,Wunderground v.1.15,2013-01-15 00:34:00,
2013-01-14 19:38:00,42.4,33.3,30.29,North,355,4.0,6.0,70,0.00,,,0.04,Wunderground v.1.15,2013-01-15 00:38:00,
2013-01-14 19:42:00,42.2,32.4,30.28,North,360,4.0,9.0,68,0.00,,,0.04,Wunderground v.1.15,2013-01-15 00:42:00,
2013-01-14 19:48:00,42.0,32.6,30.29,NNW,345,6.0,6.0,69,0.00,,,0.04,Wunderground v.1.15,2013-01-15 00:48:00,
2013-01-14 19:50:00,42.0,32.6,30.28,NNW,343,5.0,6.0,69,0.00,,,0.04,Wunderground v.1.15,2013-01-15 00:50:00,
2013-01-14 19:54:00,41.9,32.5,30.29,North,349,5.0,6.0,69,0.00,,,0.04,Wunderground v.1.15,2013-01-15 00:54:00,
2013-01-14 19:56:00,41.8,32.7,30.29,NNW,345,4.0,9.0,70,0.00,,,0.04,Wunderground v.1.15,2013-01-15 00:56:00,
2013-01-14 20:00:00,41.7,32.6,30.28,North,5,5.0,5.0,70,0.00,,,0.04,Wunderground v.1.15,2013-01-15 01:00:00,
2013-01-14 20:01:00,41.6,32.5,30.29,North,5,5.0,5.0,70,0.00,,,0.04,Wunderground v.1.15,2013-01-15 01:01:00,
2013-01-14 20:06:00,41.5,32.4,30.28,North,5,5.0,5.0,70,0.00,,,0.04,Wunderground v.1.15,2013-01-15 01:06:00,
2013-01-14 20:08:00,41.4,32.3,30.29,North,5,3.0,5.0,70,0.00,,,0.04,Wunderground v.1.15,2013-01-15 01:08:00,
2013-01-14 20:12:00,41.2,32.2,30.29,North,32767,-999.0,3.0,70,0.00,,,0.04,Wunderground v.1.15,2013-01-15 01:12:00,
2013-01-14 20:16:00,41.1,32.1,30.28,North,32767,-999.0,3.0,70,0.00,,,0.04,Wunderground v.1.15,2013-01-15 01:16:00,
2013-01-14 20:18:00,41.0,32.0,30.29,North,32767,-999.0,3.0,70,0.00,,,0.04,Wunderground v.1.15,2013-01-15 01:18:00,
2013-01-14 20:20:00,40.9,31.5,30.29,North,32767,-999.0,0.0,69,0.00,,,0.04,Wunderground v.1.15,2013-01-15 01:20:00,
2013-01-14 20:22:00,40.8,31.4,30.29,North,32767,-999.0,0.0,69,0.00,,,0.04,Wunderground v.1.15,2013-01-15 01:22:00,
2013-01-14 20:24:00,40.8,31.4,30.29,North,32767,-999.0,0.0,69,0.00,,,0.04,Wunderground v.1.15,2013-01-15 01:24:00,
2013-01-14 20:30:00,40.6,31.2,30.28,North,32767,-999.0,0.0,69,0.00,,,0.04,Wunderground v.1.15,2013-01-15 01:30:00,
2013-01-14 20:31:00,40.6,31.6,30.28,North,32767,-999.0,0.0,70,0.00,,,0.04,Wunderground v.1.15,2013-01-15 01:31:00,
2013-01-14 20:34:00,40.5,31.5,30.28,North,32767,-999.0,0.0,70,0.00,,,0.04,Wunderground v.1.15,2013-01-15 01:34:00,
2013-01-14 20:36:00,40.4,31.7,30.28,North,32767,-999.0,0.0,71,0.00,,,0.04,Wunderground v.1.15,2013-01-15 01:36:00,
2013-01-14 20:38:00,40.4,31.7,30.28,North,32767,-999.0,0.0,71,0.00,,,0.04,Wunderground v.1.15,2013-01-15 01:38:00,
2013-01-14 20:44:00,40.2,31.9,30.30,North,32767,-999.0,0.0,72,0.00,,,0.04,Wunderground v.1.15,2013-01-15 01:44:00,
2013-01-14 20:46:00,40.1,31.4,30.30,North,32767,-999.0,0.0,71,0.00,,,0.04,Wunderground v.1.15,2013-01-15 01:46:00,
2013-01-14 20:50:00,39.9,31.3,30.30,North,32767,-999.0,0.0,71,0.00,,,0.04,Wunderground v.1.15,2013-01-15 01:50:00,
2013-01-14 20:52:00,39.8,31.2,30.30,North,32767,-999.0,0.0,71,0.00,,,0.05,Wunderground v.1.15,2013-01-15 01:52:00,
2013-01-14 20:56:00,39.6,31.0,30.30,North,32767,-999.0,0.0,71,0.00,,,0.05,Wunderground v.1.15,2013-01-15 01:56:00,
2013-01-14 20:58:00,39.6,31.0,30.30,North,32767,-999.0,0.0,71,0.00,,,0.05,Wunderground v.1.15,2013-01-15 01:58:00,
2013-01-14 21:00:00,39.4,30.8,30.29,North,32767,-999.0,0.0,71,0.00,,,0.05,Wunderground v.1.15,2013-01-15 02:00:00,
2013-01-14 21:06:00,39.2,30.9,30.31,North,32767,-999.0,0.0,72,0.00,,,0.05,Wunderground v.1.15,2013-01-15 02:06:00,
2013-01-14 21:08:00,39.1,30.8,30.30,North,32767,-999.0,0.0,72,0.00,,,0.05,Wunderground v.1.15,2013-01-15 02:08:00,
2013-01-14 21:13:00,38.7,30.8,30.31,North,32767,-999.0,0.0,73,0.00,,,0.06,Wunderground v.1.15,2013-01-15 02:13:00,
2013-01-14 21:16:00,38.7,30.8,30.31,North,32767,-999.0,0.0,73,0.00,,,0.06,Wunderground v.1.15,2013-01-15 02:16:00,
2013-01-14 21:18:00,38.6,31.0,30.31,North,32767,-999.0,0.0,74,0.00,,,0.06,Wunderground v.1.15,2013-01-15 02:18:00,
2013-01-14 21:23:00,38.4,30.8,30.30,North,32767,-999.0,0.0,74,0.00,,,0.06,Wunderground v.1.15,2013-01-15 02:23:00,
2013-01-14 21:25:00,38.3,30.7,30.30,North,32767,-999.0,0.0,74,0.00,,,0.06,Wunderground v.1.15,2013-01-15 02:25:00,
2013-01-14 21:28:00,38.2,31.0,30.31,North,32767,-999.0,0.0,75,0.00,,,0.06,Wunderground v.1.15,2013-01-15 02:28:00,
2013-01-14 21:34:00,37.9,30.7,30.30,North,32767,-999.0,0.0,75,0.00,,,0.06,Wunderground v.1.15,2013-01-15 02:34:00,
2013-01-14 21:35:00,37.9,31.0,30.30,North,32767,-999.0,0.0,76,0.00,,,0.06,Wunderground v.1.15,2013-01-15 02:35:00,
2013-01-14 21:38:00,37.9,31.0,30.29,North,32767,-999.0,0.0,76,0.00,,,0.06,Wunderground v.1.15,2013-01-15 02:38:00,
2013-01-14 21:43:00,37.7,31.1,30.29,North,32767,-999.0,0.0,77,0.00,,,0.06,Wunderground v.1.15,2013-01-15 02:43:00,
2013-01-14 21:45:00,37.6,31.0,30.29,North,32767,-999.0,0.0,77,0.00,,,0.06,Wunderground v.1.15,2013-01-15 02:45:00,
2013-01-14 21:49:00,37.5,30.9,30.30,North,32767,-999.0,0.0,77,0.00,,,0.06,Wunderground v.1.15,2013-01-15 02:49:00,
2013-01-14 21:51:00,37.4,30.8,30.30,North,32767,-999.0,0.0,77,0.00,,,0.06,Wunderground v.1.15,2013-01-15 02:51:00,
2013-01-14 21:54:00,37.4,30.8,30.30,North,32767,-999.0,0.0,77,0.00,,,0.06,Wunderground v.1.15,2013-01-15 02:54:00,
2013-01-14 21:58:00,37.3,30.7,30.29,North,32767,-999.0,0.0,77,0.00,,,0.06,Wunderground v.1.15,2013-01-15 02:58:00,
2013-01-14 22:00:00,37.3,30.7,30.30,North,32767,-999.0,0.0,77,0.00,,,0.06,Wunderground v.1.15,2013-01-15 03:00:00,
2013-01-14 22:04:00,37.2,30.7,30.30,North,32767,-999.0,0.0,77,0.00,,,0.06,Wunderground v.1.15,2013-01-15 03:04:00,
2013-01-14 22:10:00,37.1,30.6,30.30,North,32767,-999.0,0.0,77,0.00,,,0.06,Wunderground v.1.15,2013-01-15 03:10:00,
2013-01-14 22:14:00,37.1,30.6,30.30,North,32767,-999.0,0.0,77,0.00,,,0.06,Wunderground v.1.15,2013-01-15 03:14:00,
2013-01-14 22:16:00,37.1,30.6,30.30,North,32767,-999.0,0.0,77,0.00,,,0.06,Wunderground v.1.15,2013-01-15 03:16:00,
2013-01-14 22:20:00,37.1,30.9,30.30,North,32767,-999.0,0.0,78,0.00,,,0.06,Wunderground v.1.15,2013-01-15 03:20:00,
2013-01-14 22:26:00,37.0,30.8,30.31,North,32767,-999.0,0.0,78,0.00,,,0.06,Wunderground v.1.15,2013-01-15 03:26:00,
2013-01-14 22:28:00,37.0,30.8,30.31,North,32767,-999.0,0.0,78,0.00,,,0.06,Wunderground v.1.15,2013-01-15 03:28:00,
2013-01-14 22:32:00,37.0,30.5,30.31,North,32767,-999.0,0.0,77,0.00,,,0.06,Wunderground v.1.15,2013-01-15 03:32:00,
2013-01-14 22:34:00,37.0,30.5,30.31,North,32767,-999.0,0.0,77,0.00,,,0.06,Wunderground v.1.15,2013-01-15 03:34:00,
2013-01-14 22:36:00,37.0,30.5,30.32,North,32767,-999.0,0.0,77,0.00,,,0.06,Wunderground v.1.15,2013-01-15 03:36:00,
2013-01-14 22:40:00,37.0,30.5,30.32,North,32767,-999.0,0.0,77,0.00,,,0.06,Wunderground v.1.15,2013-01-15 03:40:00,
2013-01-14 22:42:00,37.0,30.5,30.32,North,32767,-999.0,0.0,77,0.00,,,0.06,Wunderground v.1.15,2013-01-15 03:42:00,
2013-01-14 22:44:00,37.0,30.5,30.32,North,32767,-999.0,0.0,77,0.00,,,0.06,Wunderground v.1.15,2013-01-15 03:44:00,
2013-01-14 22:48:00,36.9,30.4,30.32,North,32767,-999.0,0.0,77,0.00,,,0.06,Wunderground v.1.15,2013-01-15 03:48:00,
2013-01-14 22:50:00,37.0,30.5,30.32,North,32767,-999.0,0.0,77,0.00,,,0.06,Wunderground v.1.15,2013-01-15 03:50:00,
2013-01-14 22:56:00,36.9,30.4,30.32,North,32767,-999.0,0.0,77,0.00,,,0.06,Wunderground v.1.15,2013-01-15 03:56:00,
2013-01-14 22:58:00,36.9,30.4,30.32,North,32767,-999.0,0.0,77,0.00,,,0.06,Wunderground v.1.15,2013-01-15 03:58:00,
2013-01-14 23:02:00,36.9,30.4,30.31,North,32767,-999.0,0.0,77,0.00,,,0.06,Wunderground v.1.15,2013-01-15 04:02:00,
2013-01-14 23:03:00,36.9,30.4,30.32,North,32767,-999.0,0.0,77,0.00,,,0.06,Wunderground v.1.15,2013-01-15 04:03:00,
2013-01-14 23:18:00,36.8,30.3,30.33,North,32767,-999.0,0.0,77,0.00,,,0.06,Wunderground v.1.15,2013-01-15 04:18:00,
2013-01-14 23:19:00,36.7,29.8,30.32,North,32767,-999.0,0.0,76,0.00,,,0.06,Wunderground v.1.15,2013-01-15 04:19:00,
2013-01-14 23:22:00,36.7,30.2,30.32,North,32767,-999.0,0.0,77,0.00,,,0.06,Wunderground v.1.15,2013-01-15 04:22:00,
2013-01-14 23:24:00,36.7,30.2,30.32,North,32767,-999.0,0.0,77,0.00,,,0.06,Wunderground v.1.15,2013-01-15 04:24:00,
2013-01-14 23:29:00,36.6,30.1,30.32,North,32767,-999.0,0.0,77,0.00,,,0.07,Wunderground v.1.15,2013-01-15 04:29:00,
2013-01-14 23:34:00,36.6,30.4,30.32,North,32767,-999.0,0.0,78,0.00,,,0.07,Wunderground v.1.15,2013-01-15 04:34:00,
2013-01-14 23:35:00,36.5,30.3,30.32,North,32767,-999.0,0.0,78,0.00,,,0.07,Wunderground v.1.15,2013-01-15 04:35:00,
2013-01-14 23:42:00,36.4,30.2,30.31,North,32767,-999.0,0.0,78,0.00,,,0.07,Wunderground v.1.15,2013-01-15 04:42:00,
2013-01-14 23:46:00,36.3,30.1,30.30,North,32767,-999.0,0.0,78,0.00,,,0.07,Wunderground v.1.15,2013-01-15 04:46:00,
2013-01-14 23:48:00,36.2,30.0,30.30,North,32767,-999.0,0.0,78,0.00,,,0.07,Wunderground v.1.15,2013-01-15 04:48:00,
2013-01-14 23:50:00,36.1,29.9,30.30,North,32767,-999.0,0.0,78,0.00,,,0.07,Wunderground v.1.15,2013-01-15 04:50:00,
2013-01-14 23:56:00,35.9,30.0,30.29,North,32767,-999.0,0.0,79,0.00,,,0.07,Wunderground v.1.15,2013-01-15 04:56:00,